This is the latest recevied weather packets stored in our database for station/object K3SV. If no packets are shown the sender has not sent any weather packets the latest 10 day(s).
| Time | Temp. | Humidity | Pressure | Rain* | Wind** | Luminosity | Snow |
|---|---|---|---|---|---|---|---|
| 1778014023 | 31.11° C | 41% | 1013.9 hPa | 0 mm | - | 329 W/m² | - |
| 1778013721 | 31.67° C | 42% | 1014 hPa | 0 mm | - | 370 W/m² | - |
| 1778013418 | 31.67° C | 41% | 1013.9 hPa | 0 mm | - | 300 W/m² | - |
| 1778013114 | 30.56° C | 41% | 1014.1 hPa | 0 mm | - | 473 W/m² | - |
| 1778012810 | 30.56° C | 42% | 1014.1 hPa | 0 mm | - | 433 W/m² | - |
| 1778012506 | 31.11° C | 42% | 1014.2 hPa | 0 mm | - | 319 W/m² | - |
| 1778012203 | 31.11° C | 41% | 1014.2 hPa | 0 mm | - | 317 W/m² | - |
| 1778011901 | 32.22° C | 41% | 1014.3 hPa | 0 mm | - | 285 W/m² | - |
| 1778011599 | 32.78° C | 38% | 1014.3 hPa | 0 mm | - | 445 W/m² | - |
| 1778011296 | 31.67° C | 38% | 1014.1 hPa | 0 mm | - | 473 W/m² | - |
| 1778010992 | 32.78° C | 38% | 1014.2 hPa | 0 mm | - | 538 W/m² | - |
| 1778010689 | 31.67° C | 39% | 1014.4 hPa | 0 mm | - | 535 W/m² | - |
| 1778010386 | 31.11° C | 39% | 1014.5 hPa | 0 mm | - | 615 W/m² | - |
| 1778010082 | 30.56° C | 41% | 1014.7 hPa | 0 mm | - | 652 W/m² | - |
| 1778009779 | 30.56° C | 43% | 1014.8 hPa | 0 mm | - | 646 W/m² | - |
| 1778009476 | 30.56° C | 44% | 1014.6 hPa | 0 mm | - | 654 W/m² | - |
| 1778009175 | 30.56° C | 44% | 1014.6 hPa | 0 mm | - | 704 W/m² | - |
| 1778008871 | 30.56° C | 44% | 1014.8 hPa | 0 mm | - | 683 W/m² | - |
| 1778008570 | 30.56° C | 44% | 1014.8 hPa | 0 mm | - | 704 W/m² | - |
| 1778008268 | 30° C | 46% | 1014.8 hPa | 0 mm | - | 737 W/m² | - |
| 1778007963 | 30.56° C | 44% | 1014.9 hPa | 0 mm | - | 672 W/m² | - |
| 1778007659 | 30° C | 47% | 1015 hPa | 0 mm | - | 695 W/m² | - |
| 1778007356 | 30° C | 45% | 1015.1 hPa | 0 mm | - | 706 W/m² | - |
| 1778007051 | 28.89° C | 48% | 1015.3 hPa | 0 mm | - | 698 W/m² | - |
| 1778006743 | 29.44° C | 48% | 1015.2 hPa | 0 mm | - | 251 W/m² | - |
* Rain latest hour (hover to see other rain measurements)
** Current wind speed in m/s (hover to see current wind gust speed)